Time_in_sec,gx,gy,gz
1323446913.65420890,-0.02117275,0.00575071,-0.99975929
1323446913.69321012,-0.02132338,0.00571687,-0.99975629
1323446913.74463105,-0.02134040,0.00568977,-0.99975608
1323446913.80450368,-0.02109637,0.00505023,-0.99976469
1323446913.85265565,-0.02120983,0.00491229,-0.99976298
1323446913.90217447,-0.02129755,0.00502853,-0.99976054
1323446913.95250583,-0.02110625,0.00508152,-0.99976432
1323446914.00164223,-0.02105058,0.00495712,-0.99976612
1323446914.05656075,-0.02076468,0.00479694,-0.99977288
1323446914.10565543,-0.02085546,0.00513187,-0.99976933
1323446914.15859580,-0.02076586,0.00515486,-0.99977108
1323446914.20453262,-0.02079414,0.00525155,-0.99976999
1323446914.25363994,-0.02092823,0.00529286,-0.99976697
1323446914.30599475,-0.02055047,0.00493453,-0.99977664
1323446914.35253739,-0.02042443,0.00509101,-0.99977844
1323446914.40463924,-0.02050721,0.00521752,-0.99977609
1323446914.45649004,-0.02044716,0.00520153,-0.99977740
1323446914.50463128,-0.02051149,0.00506631,-0.99977678
1323446914.55349541,-0.02049013,0.00488422,-0.99977812
1323446914.60554481,-0.02037937,0.00487186,-0.99978045
1323446914.65251565,-0.02035817,0.00472103,-0.99978160
1323446914.70450211,-0.02033318,0.00480896,-0.99978169
1323446914.75251031,-0.02045835,0.00479496,-0.99977921
1323446914.80463552,-0.02050818,0.00503476,-0.99977701
1323446914.85254860,-0.02058034,0.00475922,-0.99977687
1323446914.90559840,-0.02077529,0.00496179,-0.99977186
1323446914.94551730,-0.02091864,0.00499155,-0.99976872
1323446915.00518489,-0.02097741,0.00496128,-0.99976764
1323446915.05256748,-0.02108851,0.00465710,-0.99976677
1323446915.09379077,-0.02098215,0.00441981,-0.99977008
1323446915.15263176,-0.02102009,0.00450017,-0.99976893
1323446915.19270110,-0.02095356,0.00468849,-0.99976946
1323446915.25369549,-0.02107439,0.00466335,-0.99976703
1323446915.30465102,-0.02106047,0.00479253,-0.99976672
1323446915.35351014,-0.02116177,0.00470581,-0.99976499
1323446915.40452719,-0.02115393,0.00471699,-0.99976510
1323446915.44165468,-0.02119074,0.00458771,-0.99976493
1323446915.50164056,-0.02111754,0.00464322,-0.99976622
1323446915.55352616,-0.02087873,0.00415500,-0.99977338
1323446915.60466051,-0.02091107,0.00402358,-0.99977324
1323446915.65491343,-0.02081504,0.00409514,-0.99977496
1323446915.70452714,-0.02110362,0.00385221,-0.99976987
1323446915.74491310,-0.02084288,0.00404599,-0.99977458
1323446915.80536604,-0.02082076,0.00420568,-0.99977438
1323446915.84556842,-0.02078442,0.00411753,-0.99977550
1323446915.90151048,-0.02066346,0.00419265,-0.99977770
1323446915.95251179,-0.02080971,0.00430064,-0.99977420
1323446916.00453854,-0.02095944,0.00445761,-0.99977039
1323446916.05171967,-0.02009249,0.00534779,-0.99978382
1323446916.09361839,-0.02019706,0.00516558,-0.99978267
1323446916.14557838,-0.02028267,0.00530353,-0.99978022
1323446916.20553064,-0.02014634,0.00525773,-0.99978322
1323446916.24558401,-0.02013958,0.00543729,-0.99978239
1323446916.30234241,-0.02025037,0.00533375,-0.99978071
1323446916.35261917,-0.02041241,0.00537210,-0.99977721
1323446916.39255285,-0.02039390,0.00536006,-0.99977765
1323446916.45436215,-0.02026502,0.00520471,-0.99978110
1323446916.50154448,-0.02030770,0.00534536,-0.99977949
1323446916.55753207,-0.01992573,0.00539890,-0.99978689
1323446916.60553050,-0.01977238,0.00537340,-0.99979007
1323446916.65363979,-0.01981755,0.00537589,-0.99978916
1323446916.69352269,-0.01959386,0.00541817,-0.99979334
1323446916.75251722,-0.01957135,0.00540985,-0.99979383
1323446916.80165339,-0.01986025,0.00477370,-0.99979137
1323446916.85256839,-0.01981190,0.00485698,-0.99979193
1323446916.90156031,-0.01991285,0.00465056,-0.99979090
1323446916.94469333,-0.01997863,0.00456582,-0.99978998
1323446917.00451493,-0.02001608,0.00461150,-0.99978902
1323446917.05267954,-0.01975139,0.00416568,-0.99979624
1323446917.10180950,-0.01970025,0.00425655,-0.99979687
1323446917.15263128,-0.01987698,0.00407218,-0.99979414
1323446917.19364190,-0.02008649,0.00415426,-0.99978962
1323446917.25495124,-0.02013222,0.00431458,-0.99978802
1323446917.30564356,-0.02008447,0.00361885,-0.99979174
1323446917.34569764,-0.02012741,0.00375771,-0.99979036
1323446917.40254831,-0.02006695,0.00383644,-0.99979128
1323446917.44451118,-0.02031160,0.00368511,-0.99978691
1323446917.50593066,-0.02032165,0.00365416,-0.99978682
1323446917.55262136,-0.02042967,0.00395214,-0.99978348
1323446917.59366345,-0.02043938,0.00421081,-0.99978223
1323446917.65488911,-0.02026311,0.00431390,-0.99978538
1323446917.69364977,-0.02034944,0.00405848,-0.99978469
1323446917.74463034,-0.02044932,0.00408624,-0.99978254
1323446917.80184364,-0.02017178,0.00315865,-0.99979154
1323446917.84455085,-0.02037235,0.00309940,-0.99978766
1323446917.90180349,-0.02034411,0.00289572,-0.99978884
1323446917.94452024,-0.02045099,0.00281918,-0.99978688
1323446918.00564623,-0.02050067,0.00291856,-0.99978558
1323446918.05380535,-0.02034951,0.00182352,-0.99979126
1323446918.10451603,-0.02003994,0.00181716,-0.99979753
1323446918.14494371,-0.02016601,0.00173461,-0.99979514
1323446918.19256735,-0.02021824,0.00173067,-0.99979409
1323446918.24175072,-0.02015032,0.00179443,-0.99979535
1323446918.29360342,-0.02018004,0.00187963,-0.99979460
1323446918.35262680,-0.02034391,0.00186575,-0.99979130
1323446918.39252496,-0.02047014,0.00179418,-0.99978885
1323446918.44437480,-0.02064499,0.00162928,-0.99978554
1323446918.50562096,-0.02073670,0.00159248,-0.99978370
1323446918.54450893,-0.02076900,0.00125768,-0.99978351
1323446918.59250569,-0.02079078,0.00153937,-0.99978266
1323446918.64451838,-0.02097948,0.00162090,-0.99977859
1323446918.69353294,-0.02109490,0.00166152,-0.99977610
1323446918.74451137,-0.02099715,0.00154455,-0.99977834
1323446918.79251885,-0.02063185,0.00114788,-0.99978648
1323446918.84172559,-0.02063515,0.00086464,-0.99978670
1323446918.89252019,-0.02062564,0.00084286,-0.99978691
1323446918.94152308,-0.02073688,0.00092407,-0.99978454
1323446918.99351835,-0.02091335,0.00086061,-0.99978092
1323446919.04551363,-0.02072076,0.00039000,-0.99978523
1323446919.09251118,-0.02086929,0.00047473,-0.99978210
1323446919.14478374,-0.02093016,0.00042018,-0.99978085
1323446919.19356132,-0.02111501,0.00056904,-0.99977689
1323446919.24237275,-0.02125760,0.00042382,-0.99977394
1323446919.29356432,-0.02132066,-0.00031268,-0.99977264
1323446919.34455037,-0.02124406,-0.00040174,-0.99977424
1323446919.39447021,-0.02128317,-0.00036650,-0.99977342
1323446919.44453883,-0.02116638,-0.00008432,-0.99977596
1323446919.49425936,-0.02119241,-0.00022547,-0.99977539
1323446919.54552150,-0.02084739,-0.00073000,-0.99978240
1323446919.59364247,-0.02088538,-0.00074535,-0.99978160
1323446919.64517951,-0.02081310,-0.00073726,-0.99978311
1323446919.69365740,-0.02084249,-0.00064567,-0.99978256
1323446919.74554133,-0.02109311,-0.00065719,-0.99977730
1323446919.80553436,-0.02058815,-0.00088904,-0.99978765
1323446919.84556055,-0.02029562,-0.00089199,-0.99979362
1323446919.89250684,-0.02021783,-0.00089397,-0.99979520
1323446919.94208765,-0.02018428,-0.00100327,-0.99979577
1323446919.99366641,-0.02015444,-0.00110801,-0.99979626
1323446920.04450727,-0.01946710,-0.00178667,-0.99980890
1323446920.09356213,-0.01938511,-0.00180342,-0.99981046
1323446920.14462924,-0.01949709,-0.00191259,-0.99980808
1323446920.19414282,-0.01938164,-0.00198118,-0.99981020
1323446920.24553084,-0.01928644,-0.00195540,-0.99981209
1323446920.29251838,-0.01872715,-0.00251534,-0.99982147
1323446920.34463596,-0.01863989,-0.00261631,-0.99982284
1323446920.39251518,-0.01865354,-0.00260591,-0.99982261
1323446920.44194555,-0.01862187,-0.00257490,-0.99982328
1323446920.49258614,-0.01858472,-0.00264172,-0.99982380
1323446920.54462981,-0.01853054,-0.00277278,-0.99982445
1323446920.59654474,-0.01838944,-0.00287814,-0.99982676
1323446920.64564514,-0.01838291,-0.00283581,-0.99982700
1323446920.69363451,-0.01841203,-0.00274823,-0.99982671
1323446920.74553156,-0.01849158,-0.00298182,-0.99982457
1323446920.79276347,-0.01888577,-0.00218735,-0.99981926
1323446920.84451580,-0.01890322,-0.00196525,-0.99981939
1323446920.89325142,-0.01893858,-0.00185332,-0.99981893
1323446920.94565034,-0.01905769,-0.00174958,-0.99981685
1323446921.00448895,-0.01915829,-0.00154981,-0.99981526
1323446921.04555440,-0.01951833,-0.00108194,-0.99980891
1323446921.09250069,-0.01936939,-0.00109811,-0.99981179
1323446921.14569807,-0.01944552,-0.00102863,-0.99981039
1323446921.19333601,-0.01929248,-0.00083226,-0.99981354
1323446921.24452972,-0.01937437,-0.00069012,-0.99981206
1323446921.29362226,-0.01913984,-0.00058705,-0.99981664
1323446921.34566593,-0.01914903,-0.00056948,-0.99981648
1323446921.39249778,-0.01918732,-0.00059931,-0.99981573
1323446921.44568825,-0.01911104,-0.00070981,-0.99981712
1323446921.49357629,-0.01903846,-0.00060894,-0.99981857
1323446921.54464912,-0.01971142,-0.00079397,-0.99980540
1323446921.59364104,-0.01995380,-0.00074410,-0.99980063
1323446921.64153004,-0.01987280,-0.00068525,-0.99980228
1323446921.69251752,-0.01981595,-0.00064074,-0.99980344
1323446921.74565530,-0.01967995,-0.00067157,-0.99980611
1323446921.79654503,-0.02125906,-0.00038396,-0.99977393
1323446921.84561801,-0.02125073,-0.00042765,-0.99977409
1323446921.89254498,-0.02135645,-0.00033051,-0.99977187
1323446921.94448686,-0.02136480,-0.00027147,-0.99977171
1323446921.99355102,-0.02134419,-0.00021723,-0.99977216
1323446922.04452777,-0.02303984,0.00030364,-0.99973450
1323446922.09256148,-0.02323209,0.00039994,-0.99973002
1323446922.14455104,-0.02314256,0.00053956,-0.99973203
1323446922.19250226,-0.02322313,0.00069947,-0.99973006
1323446922.24453783,-0.02344356,0.00081861,-0.99972483
1323446922.29350948,-0.02373617,0.00117917,-0.99971756
1323446922.34150696,-0.02394933,0.00098075,-0.99971269
1323446922.39255142,-0.02377216,0.00087258,-0.99971702
1323446922.44225645,-0.02369390,0.00080018,-0.99971894
1323446922.49291468,-0.02394769,0.00075059,-0.99971293
1323446922.54563642,-0.02409689,-0.00022006,-0.99970960
1323446922.59520006,-0.02404717,-0.00047524,-0.99971071
1323446922.64558649,-0.02395819,-0.00032678,-0.99971291
1323446922.69251704,-0.02408325,-0.00021103,-0.99970993
1323446922.74450946,-0.02408556,-0.00024143,-0.99970987
1323446922.79263186,-0.02404630,-0.00098064,-0.99971036
1323446922.84211349,-0.02402463,-0.00108712,-0.99971078
1323446922.89251161,-0.02409361,-0.00119563,-0.99970899
1323446922.94456720,-0.02431826,-0.00149488,-0.99970315
1323446922.99655390,-0.02438291,-0.00158327,-0.99970144
1323446923.04463577,-0.02504275,-0.00051155,-0.99968625
1323446923.09251237,-0.02506951,-0.00047437,-0.99968560
1323446923.14451861,-0.02523593,-0.00044226,-0.99968143
1323446923.19252586,-0.02538917,-0.00050821,-0.99967751
1323446923.24197626,-0.02545543,-0.00032536,-0.99967591
1323446923.29256821,-0.02506346,0.00095453,-0.99968541
1323446923.34566331,-0.02511951,0.00088296,-0.99968407
1323446923.39614296,-0.02510234,0.00086420,-0.99968451
1323446923.44566154,-0.02516915,0.00067215,-0.99968298
1323446923.49252462,-0.02504504,0.00068464,-0.99968609
1323446923.54451251,-0.02570369,0.00059011,-0.99966943
1323446923.59289980,-0.02551646,0.00075534,-0.99967412
1323446923.64184022,-0.02561502,0.00059086,-0.99967171
1323446923.69249487,-0.02571418,0.00047228,-0.99966922
1323446923.74563646,-0.02566966,0.00063966,-0.99967028
1323446923.79385328,-0.02564942,0.00060274,-0.99967082
1323446923.84453011,-0.02573034,0.00061784,-0.99966873
1323446923.89353919,-0.02568272,0.00058570,-0.99966997
1323446923.94453382,-0.02548263,0.00070469,-0.99967502
1323446923.99349833,-0.02525966,0.00073081,-0.99968066
1323446924.04571176,-0.02590338,0.00122676,-0.99966370
1323446924.09352732,-0.02590613,0.00126494,-0.99966358
1323446924.14464831,-0.02585838,0.00146725,-0.99966454
1323446924.19658709,-0.02597051,0.00154087,-0.99966152
1323446924.24566960,-0.02593164,0.00161718,-0.99966241
1323446924.29372358,-0.02556149,0.00138011,-0.99967230
1323446924.34452200,-0.02561657,0.00156142,-0.99967062
1323446924.39363360,-0.02555394,0.00168269,-0.99967203
1323446924.44558573,-0.02564331,0.00181179,-0.99966951
1323446924.49251842,-0.02566422,0.00197257,-0.99966867
1323446924.54564190,-0.02544945,0.00147308,-0.99967502
1323446924.60496569,-0.02535357,0.00167239,-0.99967715
1323446924.64563823,-0.02528555,0.00159589,-0.99967900
1323446924.69358420,-0.02548451,0.00166792,-0.99967383
1323446924.74155331,-0.02556397,0.00163840,-0.99967185
1323446924.79358029,-0.02564421,0.00149488,-0.99967002
1323446924.84453225,-0.02566803,0.00146895,-0.99966944
1323446924.89249611,-0.02579060,0.00128816,-0.99966654
1323446924.94153333,-0.02580811,0.00138948,-0.99966595
1323446924.99419022,-0.02567109,0.00154713,-0.99966925
1323446925.04557347,-0.02573339,0.00051897,-0.99966871
1323446925.09435201,-0.02546120,0.00091698,-0.99967539
1323446925.14153910,-0.02535346,0.00077005,-0.99967825
1323446925.19364381,-0.02550340,0.00066179,-0.99967452
1323446925.24154186,-0.02581533,0.00067297,-0.99966650
1323446925.29353285,-0.02550899,-0.00021495,-0.99967457
1323446925.34150171,-0.02556796,-0.00021212,-0.99967306
1323446925.39249849,-0.02536130,-0.00014560,-0.99967834
1323446925.44155264,-0.02540816,0.00013459,-0.99967715
1323446925.49431109,-0.02555982,0.00011756,-0.99967329
1323446925.54553032,-0.02528270,-0.00041830,-0.99968025
1323446925.59253836,-0.02514522,-0.00049716,-0.99968369
1323446925.64239383,-0.02519854,-0.00056244,-0.99968231
1323446925.69372988,-0.02560373,-0.00028685,-0.99967213
1323446925.74165130,-0.02555189,-0.00034946,-0.99967344
1323446925.79254961,-0.02498853,-0.00087079,-0.99968736
1323446925.84553671,-0.02504006,-0.00093765,-0.99968601
1323446925.89354038,-0.02496632,-0.00103938,-0.99968775
1323446925.94450545,-0.02485270,-0.00097427,-0.99969065
1323446925.99252510,-0.02493466,-0.00101805,-0.99968856
1323446926.04450798,-0.02578299,-0.00211553,-0.99966533
1323446926.09254789,-0.02581277,-0.00204104,-0.99966471
1323446926.14450026,-0.02596688,-0.00209380,-0.99966061
1323446926.19249368,-0.02604031,-0.00212246,-0.99965864
1323446926.24551225,-0.02618453,-0.00210764,-0.99965490
1323446926.29252005,-0.02651916,-0.00186646,-0.99964656
1323446926.34586406,-0.02699879,-0.00186177,-0.99963373
1323446926.39365029,-0.02684971,-0.00193298,-0.99963761
1323446926.44186497,-0.02673603,-0.00174858,-0.99964100
1323446926.49272394,-0.02679692,-0.00159385,-0.99963963
1323446926.54566741,-0.02764190,-0.00210272,-0.99961568
1323446926.59653401,-0.02762139,-0.00191564,-0.99961662
1323446926.64450622,-0.02758016,-0.00188309,-0.99961782
1323446926.69389510,-0.02753857,-0.00190360,-0.99961893
1323446926.74448705,-0.02735370,-0.00206528,-0.99962368
1323446926.79366875,-0.02770990,-0.00376352,-0.99960892
1323446926.84450173,-0.02732303,-0.00383146,-0.99961931
1323446926.89250517,-0.02733509,-0.00376899,-0.99961922
1323446926.94453812,-0.02732675,-0.00351881,-0.99962036
1323446926.99654174,-0.02740575,-0.00373764,-0.99961740
1323446927.04177570,-0.02915392,-0.00287749,-0.99957079
1323446927.09375286,-0.02912854,-0.00293028,-0.99957138
1323446927.14454103,-0.02915825,-0.00297268,-0.99957039
1323446927.20568871,-0.02910562,-0.00272163,-0.99957264
1323446927.24160886,-0.03038556,-0.00136585,-0.99953732
1323446927.29264164,-0.03029889,-0.00144584,-0.99953984
1323446927.34164643,-0.03027850,-0.00169046,-0.99954007
1323446927.39666629,-0.03004075,-0.00174047,-0.99954716
1323446927.45262647,-0.03019745,-0.00179598,-0.99954234
1323446927.50168037,-0.03021994,-0.00142573,-0.99954226
1323446927.54464936,-0.03188718,-0.00046143,-0.99949137
1323446927.59360671,-0.03175380,-0.00034375,-0.99949566
1323446927.65662813,-0.03182645,-0.00037471,-0.99949334
1323446927.70450854,-0.03210246,-0.00041853,-0.99948450
1323446927.75568318,-0.03280350,0.00018438,-0.99946180
1323446927.79266977,-0.03293934,0.00041608,-0.99945727
1323446927.85251451,-0.03288639,0.00056555,-0.99945894
1323446927.90188575,-0.03279601,0.00072928,-0.99946180
1323446927.95252585,-0.03288576,0.00067672,-0.99945889
1323446928.00555444,-0.03266249,0.00070455,-0.99946619
1323446928.05363679,-0.03261252,0.00104287,-0.99946753
1323446928.10455251,-0.03244764,0.00091002,-0.99947302
1323446928.15253282,-0.03250828,0.00103352,-0.99947093
1323446928.20551324,-0.03253870,0.00100442,-0.99946997
1323446928.25255179,-0.03242040,0.00121301,-0.99947358
1323446928.30160952,-0.03251728,0.00005068,-0.99947117
1323446928.35254169,-0.03254641,0.00001063,-0.99947023
1323446928.40453839,-0.03279083,0.00002474,-0.99946224
1323446928.44217181,-0.03288341,0.00003531,-0.99945919
1323446928.50466228,-0.03291402,0.00012093,-0.99945818
1323446928.55751371,-0.03162755,-0.00159850,-0.99949845
1323446928.60447717,-0.03154426,-0.00150576,-0.99950122
1323446928.65351486,-0.03172096,-0.00150112,-0.99949564
1323446928.70449972,-0.03196170,-0.00119436,-0.99948838
1323446928.75250006,-0.03203925,-0.00112929,-0.99948597
1323446928.80510950,-0.03100256,-0.00239639,-0.99951643
1323446928.85254312,-0.03124982,-0.00246570,-0.99950856
1323446928.90149546,-0.03149302,-0.00266783,-0.99950041
1323446928.94449019,-0.03154086,-0.00268371,-0.99949886
1323446929.00540948,-0.03153816,-0.00282151,-0.99949857
1323446929.05349588,-0.03033277,-0.00234388,-0.99953711
1323446929.10448050,-0.03037475,-0.00242663,-0.99953564
1323446929.15350866,-0.03026461,-0.00253932,-0.99953870
1323446929.20453429,-0.03045906,-0.00265602,-0.99953249
1323446929.25526047,-0.03044745,-0.00255222,-0.99953311
1323446929.30560374,-0.02854913,-0.00191959,-0.99959055
1323446929.35258245,-0.02843988,-0.00190602,-0.99959369
1323446929.40553880,-0.02836105,-0.00199494,-0.99959575
1323446929.44564867,-0.02840131,-0.00218871,-0.99959421
1323446929.50450635,-0.02849978,-0.00209215,-0.99959161
1323446929.55249810,-0.02650999,-0.00186776,-0.99964680
1323446929.60469961,-0.02640058,-0.00176730,-0.99964988
1323446929.65242934,-0.02640712,-0.00188248,-0.99964950
1323446929.70559788,-0.02638384,-0.00194676,-0.99964999
1323446929.75258327,-0.02650153,-0.00154574,-0.99964758
1323446929.80465674,-0.02624593,-0.00040940,-0.99965543
1323446929.85364771,-0.02615067,-0.00025967,-0.99965798
1323446929.90555048,-0.02585217,-0.00009366,-0.99966577
1323446929.94565105,-0.02583752,-0.00022367,-0.99966613
1323446930.00466037,-0.02569393,-0.00008450,-0.99966985
1323446930.05430460,-0.02534953,0.00020068,-0.99967863
1323446930.10551929,-0.02513633,0.00001916,-0.99968403
1323446930.15752101,-0.02493275,-0.00011265,-0.99968912
1323446930.20453525,-0.02462445,-0.00015984,-0.99969676
1323446930.25265932,-0.02456893,-0.00001802,-0.99969814
1323446930.30563354,-0.02362685,-0.00076549,-0.99972055
1323446930.34552908,-0.02369871,-0.00090092,-0.99971874
1323446930.40553665,-0.02381408,-0.00103998,-0.99971586
1323446930.44565606,-0.02361943,-0.00146965,-0.99971994
1323446930.50459290,-0.02364325,-0.00148730,-0.99971935
1323446930.55758047,-0.02380732,-0.00029547,-0.99971652
1323446930.60456133,-0.02385070,-0.00029782,-0.99971549
1323446930.65361714,-0.02407428,-0.00023387,-0.99971015
1323446930.70148039,-0.02435679,-0.00027830,-0.99970329
1323446930.75250649,-0.02410679,-0.00009700,-0.99970938
1323446930.80154943,-0.02373134,0.00033264,-0.99971832
1323446930.85449910,-0.02363073,0.00018320,-0.99972074
1323446930.90157485,-0.02355856,0.00015931,-0.99972245
1323446930.94639206,-0.02359071,-0.00006803,-0.99972170
1323446931.00504518,-0.02349001,-0.00015823,-0.99972406
1323446931.05367851,-0.02237452,0.00114967,-0.99974900
1323446931.10159183,-0.02242026,0.00129071,-0.99974780
1323446931.15364838,-0.02212491,0.00128183,-0.99975439
1323446931.20155430,-0.02205573,0.00124926,-0.99975596
1323446931.25523281,-0.02209037,0.00122819,-0.99975522
1323446931.30166960,-0.02147006,0.00194575,-0.99976760
1323446931.35262966,-0.02128033,0.00200770,-0.99977153
1323446931.40453482,-0.02157940,0.00204353,-0.99976505
1323446931.44223237,-0.02154862,0.00229144,-0.99976518
1323446931.50448060,-0.02136777,0.00241006,-0.99976878
1323446931.55365396,-0.02127785,0.00191815,-0.99977176
